Content
SEND FEEDBACK

Daily
Averages
Monthly
Summary
United States of America

ILIAMNA, ALASKA


Home > North America > United States > Alaska
Elevation: 190 feet     Latitude: 59 45N     Longitude: 154 55W

WEATHER
 
SELECT A DAY
Number of Records: 193,267;   Date Range: 1/1/95 - 7/26/14
 
SHARE

PRINT THIS DATA

[ ← Previous Day ]
WEATHER ALMANAC - FEBRUARY 13, 2013
[ Next Day → ]
[ °C ]   °F
Weather ElementAverageHighLow
Temperature31.8 °F35.1 °F (4:53 pm)27 °F (3:53 am)
Dewpoint27.6 °F30.9 °F (1:53 pm)25 °F (4:53 am)
Humidity84.7 %100 % (2:33 am)72 % (8:53 pm)
Barometer29.61 in29.75 in (1:53 am)29.42 in (11:53 pm)
Wind Speed13.1 mph18.4 mph (3:53 pm)
Wind Gust28.8 mph (6:53 pm)
Weather ElementAverage
Visibility9.8 mi
Wind DirectionE (86.3 °)

Weather ElementTotal
Precipitation---
Heating Degree Days34 (Base 65)
Averaged from 24 records on February 13, 2013
WEATHER CONDITIONS BREAKOUT
WIND DIRECTION BREAKOUT
WEATHER BY HOUR - FEBRUARY 13, 2013
[ °C ]   °F
Local TimeTemperatureDewpointHumidityBarometerVisibilityWind DirectionWind SpeedGust SpeedPrecipitationEventsConditions
1:53 AM30.0 °F27.0 °F88 %29.75 in10.0 miESE (120°)9.2 mphOvercast
2:33 AM28.4 °F28.4 °F100 %29.73 in10.0 miEast (80°)6.9 mphOvercast
3:53 AM27.0 °F26.1 °F96 %29.75 in10.0 miESE (110°)3.5 mphMostly Cloudy
4:53 AM27.0 °F25.0 °F92 %29.73 in10.0 miENE (70°)6.9 mphOvercast
5:40 AM28.4 °F26.6 °F93 %29.70 in10.0 miEast (80°)10.4 mphOvercast
5:53 AM28.9 °F26.1 °F89 %29.71 in10.0 miENE (70°)8.1 mphOvercast
6:53 AM30.0 °F26.1 °F85 %29.70 in10.0 miEast (90°)11.5 mphOvercast
7:53 AM28.9 °F25.0 °F85 %29.69 in10.0 miENE (70°)8.1 mphMostly Cloudy
8:53 AM30.0 °F26.1 °F85 %29.68 in10.0 miEast (90°)11.5 mphOvercast
9:53 AM30.9 °F26.1 °F82 %29.67 in10.0 miEast (80°)16.1 mph23.0 mphMostly Cloudy
10:53 AM30.9 °F26.1 °F82 %29.65 in10.0 miEast (80°)13.8 mphMostly Cloudy
11:53 AM33.1 °F28.0 °F82 %29.64 in10.0 miEast (90°)13.8 mphOvercast
12:53 PM32.0 °F30.0 °F92 %29.63 in10.0 miEast (80°)11.5 mph21.9 mphMostly Cloudy
1:53 PM33.1 °F30.9 °F92 %29.62 in8.0 miEast (90°)13.8 mph24.2 mph0.00 inSnowLight Snow
2:53 PM33.1 °F30.9 °F92 %29.60 in7.0 miEast (100°)15.0 mph0.00 inOvercast
3:53 PM34.0 °F28.9 °F82 %29.56 in9.0 miEast (90°)18.4 mph27.6 mphOvercast
4:53 PM35.1 °F28.0 °F76 %29.54 in10.0 miEast (90°)17.3 mph24.2 mphOvercast
5:53 PM34.0 °F28.0 °F79 %29.52 in10.0 miEast (80°)15.0 mph26.5 mphMostly Cloudy
6:53 PM34.0 °F28.0 °F79 %29.49 in10.0 miEast (80°)16.1 mph28.8 mphOvercast
7:53 PM34.0 °F28.0 °F79 %29.49 in10.0 miEast (90°)18.4 mph24.2 mphOvercast
8:53 PM35.1 °F27.0 °F72 %29.47 in10.0 miEast (80°)16.1 mph23.0 mphOvercast
9:53 PM35.1 °F28.0 °F76 %29.44 in10.0 miEast (90°)17.3 mph23.0 mphOvercast
10:53 PM35.1 °F30.0 °F82 %29.43 in10.0 miEast (90°)18.4 mph26.5 mphOvercast
11:53 PM35.1 °F27.0 °F72 %29.42 in10.0 miEast (80°)17.3 mph24.2 mphMostly Cloudy
Hourly data recorded from PAIL, located miles away from Iliamna, Alaska







STORIES FROM OUR PARTNERS